Location: La Junie
(44.7428°N, 2.1773°E)
Time: 14:51:48
(UTC+00:00)

USA 290 - Pass Details

Date: 15 May 2026
Orbit: 396 x 415 km, 73.6° (Epoch: 30 October)

Event Time Altitude Azimuth Distance (km) Brightness Sun altitude
Exits shadow 21:18:07 55° 98° (E) 477 2.2 -17.7°
Drops below altitude 10° 21:21:05 10° 30° (NNE) 1,433 5.2 -18.0°
Sets 21:23:07 0° 26° (NNE) 2,293 6.4 -18.2°
